#datetime,building,power
2023-07-31T00:00:00,rvs,20.81
2023-07-31T00:01:00,rvs,21.48
2023-07-31T00:02:00,rvs,21.80
2023-07-31T00:03:00,rvs,16.67
2023-07-31T00:04:00,rvs,17.52
2023-07-31T00:05:00,rvs,13.53
2023-07-31T00:06:00,rvs,12.17
2023-07-31T00:07:00,rvs,12.55
2023-07-31T00:08:00,rvs,12.99
2023-07-31T00:09:00,rvs,13.03
2023-07-31T00:10:00,rvs,11.72
2023-07-31T00:11:00,rvs,11.73
2023-07-31T00:12:00,rvs,11.92
2023-07-31T00:13:00,rvs,11.78
2023-07-31T00:14:00,rvs,11.59
2023-07-31T00:15:00,rvs,10.94
2023-07-31T00:16:00,rvs,10.94
2023-07-31T00:17:00,rvs,10.95
2023-07-31T00:18:00,rvs,30.61
2023-07-31T00:19:00,rvs,12.10
2023-07-31T00:20:00,rvs,12.10
2023-07-31T00:21:00,rvs,13.13
2023-07-31T00:22:00,rvs,13.28
2023-07-31T00:23:00,rvs,13.35
2023-07-31T00:24:00,rvs,13.74
2023-07-31T00:25:00,rvs,16.10
2023-07-31T00:26:00,rvs,17.07
2023-07-31T00:27:00,rvs,17.53
2023-07-31T00:28:00,rvs,17.19
2023-07-31T00:29:00,rvs,30.39
2023-07-31T00:30:00,rvs,22.06
2023-07-31T00:31:00,rvs,37.66
2023-07-31T00:32:00,rvs,34.51
2023-07-31T00:33:00,rvs,24.39
2023-07-31T00:34:00,rvs,38.43
2023-07-31T00:35:00,rvs,26.32
2023-07-31T00:36:00,rvs,26.34
2023-07-31T00:37:00,rvs,26.08
2023-07-31T00:38:00,rvs,26.14
2023-07-31T00:39:00,rvs,26.11
2023-07-31T00:40:00,rvs,25.68
2023-07-31T00:41:00,rvs,24.17
2023-07-31T00:42:00,rvs,24.13
2023-07-31T00:43:00,rvs,23.30
2023-07-31T00:44:00,rvs,25.37
2023-07-31T00:45:00,rvs,25.39
2023-07-31T00:46:00,rvs,25.07
2023-07-31T00:47:00,rvs,20.73
2023-07-31T00:48:00,rvs,22.17
2023-07-31T00:49:00,rvs,23.25
2023-07-31T00:50:00,rvs,23.24
2023-07-31T00:51:00,rvs,23.30
2023-07-31T00:52:00,rvs,21.90
2023-07-31T00:53:00,rvs,22.31
2023-07-31T00:54:00,rvs,22.45
2023-07-31T00:55:00,rvs,21.56
2023-07-31T00:56:00,rvs,20.97
2023-07-31T00:57:00,rvs,21.03
2023-07-31T00:58:00,rvs,21.15
2023-07-31T00:59:00,rvs,21.37
2023-07-31T01:00:00,rvs,11.26
2023-07-31T01:01:00,rvs,11.19
2023-07-31T01:02:00,rvs,15.54
2023-07-31T01:03:00,rvs,15.28
2023-07-31T01:04:00,rvs,12.17
2023-07-31T01:05:00,rvs,12.76
2023-07-31T01:06:00,rvs,15.23
2023-07-31T01:07:00,rvs,15.73
2023-07-31T01:08:00,rvs,15.94
2023-07-31T01:09:00,rvs,11.82
2023-07-31T01:10:00,rvs,11.75
2023-07-31T01:11:00,rvs,16.28
2023-07-31T01:12:00,rvs,16.73
2023-07-31T01:13:00,rvs,11.64
2023-07-31T01:14:00,rvs,11.58
2023-07-31T01:15:00,rvs,11.43
2023-07-31T01:16:00,rvs,11.50
2023-07-31T01:17:00,rvs,12.45
2023-07-31T01:18:00,rvs,12.56
2023-07-31T01:19:00,rvs,12.46
2023-07-31T01:20:00,rvs,11.43
2023-07-31T01:21:00,rvs,11.06
2023-07-31T01:22:00,rvs,15.53
2023-07-31T01:23:00,rvs,11.20
2023-07-31T01:24:00,rvs,11.42
2023-07-31T01:25:00,rvs,11.02
2023-07-31T01:26:00,rvs,10.92
2023-07-31T01:27:00,rvs,10.98
2023-07-31T01:28:00,rvs,10.44
2023-07-31T01:29:00,rvs,11.49
2023-07-31T01:30:00,rvs,11.36
2023-07-31T01:31:00,rvs,10.52
2023-07-31T01:32:00,rvs,10.31
2023-07-31T01:33:00,rvs,10.25
2023-07-31T01:34:00,rvs,10.26
2023-07-31T01:35:00,rvs,10.18
2023-07-31T01:36:00,rvs,10.19
2023-07-31T01:37:00,rvs,10.23
2023-07-31T01:38:00,rvs,10.19
2023-07-31T01:39:00,rvs,10.23
2023-07-31T01:40:00,rvs,11.07
2023-07-31T01:41:00,rvs,11.25
2023-07-31T01:42:00,rvs,11.31
2023-07-31T01:43:00,rvs,10.44
2023-07-31T01:44:00,rvs,10.63
2023-07-31T01:45:00,rvs,10.72
2023-07-31T01:46:00,rvs,10.17
2023-07-31T01:47:00,rvs,10.18
2023-07-31T01:48:00,rvs,10.46
2023-07-31T01:49:00,rvs,10.23
2023-07-31T01:50:00,rvs,10.17
2023-07-31T01:51:00,rvs,10.24
2023-07-31T01:52:00,rvs,11.11
2023-07-31T01:53:00,rvs,11.61
2023-07-31T01:54:00,rvs,11.57
2023-07-31T01:55:00,rvs,10.57
2023-07-31T01:56:00,rvs,10.54
2023-07-31T01:57:00,rvs,10.53
2023-07-31T01:58:00,rvs,10.52
2023-07-31T01:59:00,rvs,11.10
2023-07-31T02:00:00,rvs,11.11
2023-07-31T02:01:00,rvs,11.19
2023-07-31T02:02:00,rvs,11.22
2023-07-31T02:03:00,rvs,11.54
2023-07-31T02:04:00,rvs,12.50
2023-07-31T02:05:00,rvs,12.67
2023-07-31T02:06:00,rvs,12.66
2023-07-31T02:07:00,rvs,11.46
2023-07-31T02:08:00,rvs,11.56
2023-07-31T02:09:00,rvs,11.71
2023-07-31T02:10:00,rvs,11.69
2023-07-31T02:11:00,rvs,11.86
2023-07-31T02:12:00,rvs,11.73
2023-07-31T02:13:00,rvs,11.81
2023-07-31T02:14:00,rvs,11.27
2023-07-31T02:15:00,rvs,11.42
2023-07-31T02:16:00,rvs,12.50
2023-07-31T02:17:00,rvs,12.75
2023-07-31T02:18:00,rvs,12.65
2023-07-31T02:19:00,rvs,11.93
2023-07-31T02:20:00,rvs,11.63
2023-07-31T02:21:00,rvs,10.56
2023-07-31T02:22:00,rvs,10.58
2023-07-31T02:23:00,rvs,10.58
2023-07-31T02:24:00,rvs,10.50
2023-07-31T02:25:00,rvs,12.68
2023-07-31T02:26:00,rvs,12.50
2023-07-31T02:27:00,rvs,12.46
2023-07-31T02:28:00,rvs,13.35
2023-07-31T02:29:00,rvs,13.35
2023-07-31T02:30:00,rvs,15.30
2023-07-31T02:31:00,rvs,14.17
2023-07-31T02:32:00,rvs,14.16
2023-07-31T02:33:00,rvs,13.71
2023-07-31T02:34:00,rvs,14.52
2023-07-31T02:35:00,rvs,14.47
2023-07-31T02:36:00,rvs,14.21
2023-07-31T02:37:00,rvs,13.92
2023-07-31T02:38:00,rvs,13.76
2023-07-31T02:39:00,rvs,13.75
2023-07-31T02:40:00,rvs,14.79
2023-07-31T02:41:00,rvs,14.78
2023-07-31T02:42:00,rvs,14.98
2023-07-31T02:43:00,rvs,14.43
2023-07-31T02:44:00,rvs,14.91
2023-07-31T02:45:00,rvs,12.80
2023-07-31T02:46:00,rvs,13.36
2023-07-31T02:47:00,rvs,13.85
2023-07-31T02:48:00,rvs,14.44
2023-07-31T02:49:00,rvs,16.91
2023-07-31T02:50:00,rvs,17.63
2023-07-31T02:51:00,rvs,13.43
2023-07-31T02:52:00,rvs,14.92
2023-07-31T02:53:00,rvs,15.69
2023-07-31T02:54:00,rvs,16.34
2023-07-31T02:55:00,rvs,15.32
2023-07-31T02:56:00,rvs,10.82
2023-07-31T02:57:00,rvs,10.87
2023-07-31T02:58:00,rvs,10.92
2023-07-31T02:59:00,rvs,11.37
2023-07-31T03:00:00,rvs,11.39
2023-07-31T03:01:00,rvs,10.88
2023-07-31T03:02:00,rvs,10.84
2023-07-31T03:03:00,rvs,10.84
2023-07-31T03:04:00,rvs,10.88
2023-07-31T03:05:00,rvs,11.91
2023-07-31T03:06:00,rvs,12.58
2023-07-31T03:07:00,rvs,13.68
2023-07-31T03:08:00,rvs,12.96
2023-07-31T03:09:00,rvs,12.94
2023-07-31T03:10:00,rvs,13.36
2023-07-31T03:11:00,rvs,13.98
2023-07-31T03:12:00,rvs,14.72
2023-07-31T03:13:00,rvs,14.77
2023-07-31T03:14:00,rvs,14.26
2023-07-31T03:15:00,rvs,14.38
2023-07-31T03:16:00,rvs,15.49
2023-07-31T03:17:00,rvs,15.37
2023-07-31T03:18:00,rvs,15.19
2023-07-31T03:19:00,rvs,10.36
2023-07-31T03:20:00,rvs,10.28
2023-07-31T03:21:00,rvs,10.14
2023-07-31T03:22:00,rvs,10.28
2023-07-31T03:23:00,rvs,10.24
2023-07-31T03:24:00,rvs,10.32
2023-07-31T03:25:00,rvs,10.89
2023-07-31T03:26:00,rvs,10.83
2023-07-31T03:27:00,rvs,10.83
2023-07-31T03:28:00,rvs,10.77
2023-07-31T03:29:00,rvs,11.69
2023-07-31T03:30:00,rvs,11.80
2023-07-31T03:31:00,rvs,11.91
2023-07-31T03:32:00,rvs,10.36
2023-07-31T03:33:00,rvs,10.44
2023-07-31T03:34:00,rvs,23.74
2023-07-31T03:35:00,rvs,23.34
2023-07-31T03:36:00,rvs,25.13
2023-07-31T03:37:00,rvs,25.41
2023-07-31T03:38:00,rvs,25.63
2023-07-31T03:39:00,rvs,13.33
2023-07-31T03:40:00,rvs,14.87
2023-07-31T03:41:00,rvs,16.42
2023-07-31T03:42:00,rvs,16.73
2023-07-31T03:43:00,rvs,16.34
2023-07-31T03:44:00,rvs,15.11
2023-07-31T03:45:00,rvs,14.88
2023-07-31T03:46:00,rvs,14.80
2023-07-31T03:47:00,rvs,14.89
2023-07-31T03:48:00,rvs,14.78
2023-07-31T03:49:00,rvs,14.75
2023-07-31T03:50:00,rvs,15.47
2023-07-31T03:51:00,rvs,14.99
2023-07-31T03:52:00,rvs,15.12
2023-07-31T03:53:00,rvs,16.10
2023-07-31T03:54:00,rvs,11.72
2023-07-31T03:55:00,rvs,11.73
2023-07-31T03:56:00,rvs,10.66
2023-07-31T03:57:00,rvs,10.68
2023-07-31T03:58:00,rvs,10.64
2023-07-31T03:59:00,rvs,10.21
2023-07-31T04:00:00,rvs,10.22
2023-07-31T04:01:00,rvs,10.30
2023-07-31T04:02:00,rvs,10.35
2023-07-31T04:03:00,rvs,10.30
2023-07-31T04:04:00,rvs,10.27
2023-07-31T04:05:00,rvs,10.19
2023-07-31T04:06:00,rvs,11.13
2023-07-31T04:07:00,rvs,12.92
2023-07-31T04:08:00,rvs,13.59
2023-07-31T04:09:00,rvs,12.86
2023-07-31T04:10:00,rvs,13.33
2023-07-31T04:11:00,rvs,14.24
2023-07-31T04:12:00,rvs,14.92
2023-07-31T04:13:00,rvs,15.25
2023-07-31T04:14:00,rvs,13.92
2023-07-31T04:15:00,rvs,10.53
2023-07-31T04:16:00,rvs,10.02
2023-07-31T04:17:00,rvs,10.02
2023-07-31T04:18:00,rvs,10.01
2023-07-31T04:19:00,rvs,10.94
2023-07-31T04:20:00,rvs,11.00
2023-07-31T04:21:00,rvs,14.91
2023-07-31T04:22:00,rvs,14.90
2023-07-31T04:23:00,rvs,15.28
2023-07-31T04:24:00,rvs,17.87
2023-07-31T04:25:00,rvs,19.28
2023-07-31T04:26:00,rvs,20.33
2023-07-31T04:27:00,rvs,21.08
2023-07-31T04:28:00,rvs,21.55
2023-07-31T04:29:00,rvs,18.57
2023-07-31T04:30:00,rvs,19.09
2023-07-31T04:31:00,rvs,19.14
2023-07-31T04:32:00,rvs,19.55
2023-07-31T04:33:00,rvs,19.72
2023-07-31T04:34:00,rvs,20.53
2023-07-31T04:35:00,rvs,20.66
2023-07-31T04:36:00,rvs,15.13
2023-07-31T04:37:00,rvs,14.86
2023-07-31T04:38:00,rvs,14.91
2023-07-31T04:39:00,rvs,11.35
2023-07-31T04:40:00,rvs,11.32
2023-07-31T04:41:00,rvs,11.22
2023-07-31T04:42:00,rvs,10.63
2023-07-31T04:43:00,rvs,10.45
2023-07-31T04:44:00,rvs,10.50
2023-07-31T04:45:00,rvs,10.44
2023-07-31T04:46:00,rvs,11.46
2023-07-31T04:47:00,rvs,11.50
2023-07-31T04:48:00,rvs,10.85
2023-07-31T04:49:00,rvs,10.86
2023-07-31T04:50:00,rvs,10.84
2023-07-31T04:51:00,rvs,10.02
2023-07-31T04:52:00,rvs,10.13
2023-07-31T04:53:00,rvs,10.09
2023-07-31T04:54:00,rvs,10.11
2023-07-31T04:55:00,rvs,10.09
2023-07-31T04:56:00,rvs,10.03
2023-07-31T04:57:00,rvs,10.01
2023-07-31T04:58:00,rvs,10.10
2023-07-31T04:59:00,rvs,11.04
2023-07-31T05:00:00,rvs,11.03
2023-07-31T05:01:00,rvs,11.14
2023-07-31T05:02:00,rvs,10.07
2023-07-31T05:03:00,rvs,10.11
2023-07-31T05:04:00,rvs,10.09
2023-07-31T05:05:00,rvs,10.13
2023-07-31T05:06:00,rvs,10.01
2023-07-31T05:07:00,rvs,9.91
2023-07-31T05:08:00,rvs,9.99
2023-07-31T05:09:00,rvs,9.97
2023-07-31T05:10:00,rvs,9.86
2023-07-31T05:11:00,rvs,11.75
2023-07-31T05:12:00,rvs,13.04
2023-07-31T05:13:00,rvs,13.61
2023-07-31T05:14:00,rvs,13.72
2023-07-31T05:15:00,rvs,13.18
2023-07-31T05:16:00,rvs,13.91
2023-07-31T05:17:00,rvs,13.90
2023-07-31T05:18:00,rvs,13.78
2023-07-31T05:19:00,rvs,13.60
2023-07-31T05:20:00,rvs,13.80
2023-07-31T05:21:00,rvs,13.91
2023-07-31T05:22:00,rvs,13.78
2023-07-31T05:23:00,rvs,13.91
2023-07-31T05:24:00,rvs,14.68
2023-07-31T05:25:00,rvs,15.36
2023-07-31T05:26:00,rvs,16.78
2023-07-31T05:27:00,rvs,17.34
2023-07-31T05:28:00,rvs,17.05
2023-07-31T05:29:00,rvs,15.46
2023-07-31T05:30:00,rvs,15.29
2023-07-31T05:31:00,rvs,14.88
2023-07-31T05:32:00,rvs,15.07
2023-07-31T05:33:00,rvs,14.95
2023-07-31T05:34:00,rvs,15.12
2023-07-31T05:35:00,rvs,15.43
2023-07-31T05:36:00,rvs,15.42
2023-07-31T05:37:00,rvs,14.38
2023-07-31T05:38:00,rvs,14.40
2023-07-31T05:39:00,rvs,14.44
2023-07-31T05:40:00,rvs,15.69
2023-07-31T05:41:00,rvs,12.49
2023-07-31T05:42:00,rvs,12.49
2023-07-31T05:43:00,rvs,11.02
2023-07-31T05:44:00,rvs,11.00
2023-07-31T05:45:00,rvs,11.02
2023-07-31T05:46:00,rvs,10.96
2023-07-31T05:47:00,rvs,10.83
2023-07-31T05:48:00,rvs,10.84
2023-07-31T05:49:00,rvs,10.80
2023-07-31T05:50:00,rvs,10.93
2023-07-31T05:51:00,rvs,10.94
2023-07-31T05:52:00,rvs,11.02
2023-07-31T05:53:00,rvs,11.70
2023-07-31T05:54:00,rvs,12.54
2023-07-31T05:55:00,rvs,13.53
2023-07-31T05:56:00,rvs,12.98
2023-07-31T05:57:00,rvs,11.96
2023-07-31T05:58:00,rvs,11.54
2023-07-31T05:59:00,rvs,11.45
2023-07-31T06:00:00,rvs,11.42
2023-07-31T06:01:00,rvs,10.13
2023-07-31T06:02:00,rvs,10.14
2023-07-31T06:03:00,rvs,10.17
2023-07-31T06:04:00,rvs,10.77
2023-07-31T06:05:00,rvs,10.69
2023-07-31T06:06:00,rvs,10.92
2023-07-31T06:07:00,rvs,11.99
2023-07-31T06:08:00,rvs,11.84
2023-07-31T06:09:00,rvs,11.35
2023-07-31T06:10:00,rvs,10.80
2023-07-31T06:11:00,rvs,10.33
2023-07-31T06:12:00,rvs,11.92
2023-07-31T06:13:00,rvs,13.21
2023-07-31T06:14:00,rvs,12.81
2023-07-31T06:15:00,rvs,12.35
2023-07-31T06:16:00,rvs,12.10
2023-07-31T06:17:00,rvs,12.86
2023-07-31T06:18:00,rvs,12.70
2023-07-31T06:19:00,rvs,12.79
2023-07-31T06:20:00,rvs,12.79
2023-07-31T06:21:00,rvs,13.92
2023-07-31T06:22:00,rvs,27.28
2023-07-31T06:23:00,rvs,27.05
2023-07-31T06:24:00,rvs,25.52
2023-07-31T06:25:00,rvs,13.10
2023-07-31T06:26:00,rvs,13.17
2023-07-31T06:27:00,rvs,13.30
2023-07-31T06:28:00,rvs,13.59
2023-07-31T06:29:00,rvs,14.32
2023-07-31T06:30:00,rvs,14.62
2023-07-31T06:31:00,rvs,14.94
2023-07-31T06:32:00,rvs,13.24
2023-07-31T06:33:00,rvs,13.47
2023-07-31T06:34:00,rvs,14.78
2023-07-31T06:35:00,rvs,15.07
2023-07-31T06:36:00,rvs,20.21
2023-07-31T06:37:00,rvs,19.66
2023-07-31T06:38:00,rvs,19.59
2023-07-31T06:39:00,rvs,19.57
2023-07-31T06:40:00,rvs,19.70
2023-07-31T06:41:00,rvs,19.23
2023-07-31T06:42:00,rvs,19.31
2023-07-31T06:43:00,rvs,19.34
2023-07-31T06:44:00,rvs,15.20
2023-07-31T06:45:00,rvs,15.16
2023-07-31T06:46:00,rvs,15.09
2023-07-31T06:47:00,rvs,15.06
2023-07-31T06:48:00,rvs,16.16
2023-07-31T06:49:00,rvs,16.22
2023-07-31T06:50:00,rvs,16.50
2023-07-31T06:51:00,rvs,15.37
2023-07-31T06:52:00,rvs,18.79
2023-07-31T06:53:00,rvs,18.69
2023-07-31T06:54:00,rvs,19.40
2023-07-31T06:55:00,rvs,18.91
2023-07-31T06:56:00,rvs,19.39
2023-07-31T06:57:00,rvs,19.24
2023-07-31T06:58:00,rvs,18.53
2023-07-31T06:59:00,rvs,14.70
2023-07-31T07:00:00,rvs,17.22
2023-07-31T07:01:00,rvs,23.63
2023-07-31T07:02:00,rvs,24.36
2023-07-31T07:03:00,rvs,22.60
2023-07-31T07:04:00,rvs,18.04
2023-07-31T07:05:00,rvs,22.15
2023-07-31T07:06:00,rvs,19.36
2023-07-31T07:07:00,rvs,15.35
2023-07-31T07:08:00,rvs,15.63
2023-07-31T07:09:00,rvs,19.53
2023-07-31T07:10:00,rvs,20.48
2023-07-31T07:11:00,rvs,16.20
2023-07-31T07:12:00,rvs,20.07
2023-07-31T07:13:00,rvs,16.33
2023-07-31T07:14:00,rvs,16.15
2023-07-31T07:15:00,rvs,12.83
2023-07-31T07:16:00,rvs,13.88
2023-07-31T07:17:00,rvs,17.95
2023-07-31T07:18:00,rvs,12.42
2023-07-31T07:19:00,rvs,12.34
2023-07-31T07:20:00,rvs,16.45
2023-07-31T07:21:00,rvs,14.47
2023-07-31T07:22:00,rvs,14.97
2023-07-31T07:23:00,rvs,19.03
2023-07-31T07:24:00,rvs,15.31
2023-07-31T07:25:00,rvs,16.33
2023-07-31T07:26:00,rvs,19.85
2023-07-31T07:27:00,rvs,14.98
2023-07-31T07:28:00,rvs,12.22
2023-07-31T07:29:00,rvs,13.04
2023-07-31T07:30:00,rvs,12.69
2023-07-31T07:31:00,rvs,12.15
2023-07-31T07:32:00,rvs,11.28
2023-07-31T07:33:00,rvs,11.32
2023-07-31T07:34:00,rvs,11.29
2023-07-31T07:35:00,rvs,11.29
2023-07-31T07:36:00,rvs,11.25
2023-07-31T07:37:00,rvs,11.48
2023-07-31T07:38:00,rvs,11.49
2023-07-31T07:39:00,rvs,11.51
2023-07-31T07:40:00,rvs,12.04
2023-07-31T07:41:00,rvs,12.84
2023-07-31T07:42:00,rvs,12.27
2023-07-31T07:43:00,rvs,12.36
2023-07-31T07:44:00,rvs,11.83
2023-07-31T07:45:00,rvs,11.81
2023-07-31T07:46:00,rvs,12.21
2023-07-31T07:47:00,rvs,11.52
2023-07-31T07:48:00,rvs,11.42
2023-07-31T07:49:00,rvs,11.43
2023-07-31T07:50:00,rvs,11.97
2023-07-31T07:51:00,rvs,11.99
2023-07-31T07:52:00,rvs,11.90
2023-07-31T07:53:00,rvs,25.53
2023-07-31T07:54:00,rvs,13.35
2023-07-31T07:55:00,rvs,13.47
2023-07-31T07:56:00,rvs,12.92
2023-07-31T07:57:00,rvs,11.92
2023-07-31T07:58:00,rvs,12.14
2023-07-31T07:59:00,rvs,11.97
2023-07-31T08:00:00,rvs,12.04
2023-07-31T08:01:00,rvs,11.86
2023-07-31T08:02:00,rvs,12.19
2023-07-31T08:03:00,rvs,12.46
2023-07-31T08:04:00,rvs,12.80
2023-07-31T08:05:00,rvs,15.26
2023-07-31T08:06:00,rvs,16.04
2023-07-31T08:07:00,rvs,15.63
2023-07-31T08:08:00,rvs,14.64
2023-07-31T08:09:00,rvs,14.93
2023-07-31T08:10:00,rvs,15.57
2023-07-31T08:11:00,rvs,16.11
2023-07-31T08:12:00,rvs,16.76
2023-07-31T08:13:00,rvs,17.30
2023-07-31T08:14:00,rvs,17.12
2023-07-31T08:15:00,rvs,18.45
2023-07-31T08:16:00,rvs,19.35
2023-07-31T08:17:00,rvs,19.85
2023-07-31T08:18:00,rvs,20.48
2023-07-31T08:19:00,rvs,15.85
2023-07-31T08:20:00,rvs,16.53
2023-07-31T08:21:00,rvs,16.00
2023-07-31T08:22:00,rvs,15.94
2023-07-31T08:23:00,rvs,15.93
2023-07-31T08:24:00,rvs,15.80
2023-07-31T08:25:00,rvs,16.23
2023-07-31T08:26:00,rvs,15.88
2023-07-31T08:27:00,rvs,16.61
2023-07-31T08:28:00,rvs,16.13
2023-07-31T08:29:00,rvs,17.11
2023-07-31T08:30:00,rvs,17.24
2023-07-31T08:31:00,rvs,16.94
2023-07-31T08:32:00,rvs,15.99
2023-07-31T08:33:00,rvs,12.41
2023-07-31T08:34:00,rvs,12.30
2023-07-31T08:35:00,rvs,12.53
2023-07-31T08:36:00,rvs,12.59
2023-07-31T08:37:00,rvs,12.71
2023-07-31T08:38:00,rvs,12.04
2023-07-31T08:39:00,rvs,11.93
2023-07-31T08:40:00,rvs,14.03
2023-07-31T08:41:00,rvs,14.69
2023-07-31T08:42:00,rvs,14.98
2023-07-31T08:43:00,rvs,15.17
2023-07-31T08:44:00,rvs,14.94
2023-07-31T08:45:00,rvs,15.25
2023-07-31T08:46:00,rvs,14.94
2023-07-31T08:47:00,rvs,15.10
2023-07-31T08:48:00,rvs,14.85
2023-07-31T08:49:00,rvs,14.63
2023-07-31T08:50:00,rvs,17.18
2023-07-31T08:51:00,rvs,16.44
2023-07-31T08:52:00,rvs,17.17
2023-07-31T08:53:00,rvs,18.24
2023-07-31T08:54:00,rvs,15.88
2023-07-31T08:55:00,rvs,16.02
2023-07-31T08:56:00,rvs,15.84
2023-07-31T08:57:00,rvs,17.54
2023-07-31T08:58:00,rvs,18.21
2023-07-31T08:59:00,rvs,17.69
2023-07-31T09:00:00,rvs,16.90
2023-07-31T09:01:00,rvs,16.31
2023-07-31T09:02:00,rvs,17.01
2023-07-31T09:03:00,rvs,14.44
2023-07-31T09:04:00,rvs,14.76
2023-07-31T09:05:00,rvs,14.63
2023-07-31T09:06:00,rvs,14.38
2023-07-31T09:07:00,rvs,14.22
2023-07-31T09:08:00,rvs,11.15
2023-07-31T09:09:00,rvs,11.00
2023-07-31T09:10:00,rvs,11.96
2023-07-31T09:11:00,rvs,14.61
2023-07-31T09:12:00,rvs,13.74
2023-07-31T09:13:00,rvs,13.97
2023-07-31T09:14:00,rvs,15.06
2023-07-31T09:15:00,rvs,15.71
2023-07-31T09:16:00,rvs,15.54
2023-07-31T09:17:00,rvs,14.44
2023-07-31T09:18:00,rvs,15.26
2023-07-31T09:19:00,rvs,16.37
2023-07-31T09:20:00,rvs,17.06
2023-07-31T09:21:00,rvs,16.54
2023-07-31T09:22:00,rvs,16.59
2023-07-31T09:23:00,rvs,13.30
2023-07-31T09:24:00,rvs,13.16
2023-07-31T09:25:00,rvs,13.57
2023-07-31T09:26:00,rvs,12.34
2023-07-31T09:27:00,rvs,12.13
2023-07-31T09:28:00,rvs,11.85
2023-07-31T09:29:00,rvs,31.40
2023-07-31T09:30:00,rvs,25.14
2023-07-31T09:31:00,rvs,24.11
2023-07-31T09:32:00,rvs,11.20
2023-07-31T09:33:00,rvs,11.37
2023-07-31T09:34:00,rvs,23.77
2023-07-31T09:35:00,rvs,18.36
2023-07-31T09:36:00,rvs,13.89
2023-07-31T09:37:00,rvs,13.87
2023-07-31T09:38:00,rvs,14.12
2023-07-31T09:39:00,rvs,14.69
2023-07-31T09:40:00,rvs,14.39
2023-07-31T09:41:00,rvs,15.02
2023-07-31T09:42:00,rvs,15.23
2023-07-31T09:43:00,rvs,16.29
2023-07-31T09:44:00,rvs,15.94
2023-07-31T09:45:00,rvs,16.32
2023-07-31T09:46:00,rvs,16.82
2023-07-31T09:47:00,rvs,14.91
2023-07-31T09:48:00,rvs,15.20
2023-07-31T09:49:00,rvs,14.81
2023-07-31T09:50:00,rvs,32.14
2023-07-31T09:51:00,rvs,15.14
2023-07-31T09:52:00,rvs,14.88
2023-07-31T09:53:00,rvs,13.97
2023-07-31T09:54:00,rvs,10.97
2023-07-31T09:55:00,rvs,11.79
2023-07-31T09:56:00,rvs,11.73
2023-07-31T09:57:00,rvs,11.80
2023-07-31T09:58:00,rvs,10.72
2023-07-31T09:59:00,rvs,10.76
2023-07-31T10:00:00,rvs,10.80
2023-07-31T10:01:00,rvs,10.81
2023-07-31T10:02:00,rvs,10.79
2023-07-31T10:03:00,rvs,10.80
2023-07-31T10:04:00,rvs,10.71
2023-07-31T10:05:00,rvs,10.83
2023-07-31T10:06:00,rvs,11.01
2023-07-31T10:07:00,rvs,14.34
2023-07-31T10:08:00,rvs,14.77
2023-07-31T10:09:00,rvs,15.53
2023-07-31T10:10:00,rvs,15.83
2023-07-31T10:11:00,rvs,16.63
2023-07-31T10:12:00,rvs,15.58
2023-07-31T10:13:00,rvs,14.93
2023-07-31T10:14:00,rvs,16.41
2023-07-31T10:15:00,rvs,17.47
2023-07-31T10:16:00,rvs,15.99
2023-07-31T10:17:00,rvs,16.64
2023-07-31T10:18:00,rvs,14.57
2023-07-31T10:19:00,rvs,15.91
2023-07-31T10:20:00,rvs,19.45
2023-07-31T10:21:00,rvs,20.71
2023-07-31T10:22:00,rvs,20.32
2023-07-31T10:23:00,rvs,18.84
2023-07-31T10:24:00,rvs,21.48
2023-07-31T10:25:00,rvs,23.66
2023-07-31T10:26:00,rvs,22.74
2023-07-31T10:27:00,rvs,20.71
2023-07-31T10:28:00,rvs,21.98
2023-07-31T10:29:00,rvs,21.94
2023-07-31T10:30:00,rvs,21.63
2023-07-31T10:31:00,rvs,21.07
2023-07-31T10:32:00,rvs,16.89
2023-07-31T10:33:00,rvs,16.62
2023-07-31T10:34:00,rvs,18.04
2023-07-31T10:35:00,rvs,16.12
2023-07-31T10:36:00,rvs,16.62
2023-07-31T10:37:00,rvs,16.05
2023-07-31T10:38:00,rvs,15.77
2023-07-31T10:39:00,rvs,15.53
2023-07-31T10:40:00,rvs,15.09
2023-07-31T10:41:00,rvs,15.11
2023-07-31T10:42:00,rvs,16.13
2023-07-31T10:43:00,rvs,16.49
2023-07-31T10:44:00,rvs,11.13
2023-07-31T10:45:00,rvs,10.13
2023-07-31T10:46:00,rvs,14.44
2023-07-31T10:47:00,rvs,10.18
2023-07-31T10:48:00,rvs,14.35
2023-07-31T10:49:00,rvs,22.86
2023-07-31T10:50:00,rvs,22.91
2023-07-31T10:51:00,rvs,22.98
2023-07-31T10:52:00,rvs,22.92
2023-07-31T10:53:00,rvs,22.96
2023-07-31T10:54:00,rvs,24.61
2023-07-31T10:55:00,rvs,24.95
2023-07-31T10:56:00,rvs,24.76
2023-07-31T10:57:00,rvs,23.14
2023-07-31T10:58:00,rvs,23.01
2023-07-31T10:59:00,rvs,26.66
2023-07-31T11:00:00,rvs,28.66
2023-07-31T11:01:00,rvs,29.72
2023-07-31T11:02:00,rvs,30.99
2023-07-31T11:03:00,rvs,30.97
2023-07-31T11:04:00,rvs,28.06
2023-07-31T11:05:00,rvs,27.46
2023-07-31T11:06:00,rvs,32.28
2023-07-31T11:07:00,rvs,32.18
2023-07-31T11:08:00,rvs,24.73
2023-07-31T11:09:00,rvs,27.85
2023-07-31T11:10:00,rvs,31.55
2023-07-31T11:11:00,rvs,31.60
2023-07-31T11:12:00,rvs,27.66
2023-07-31T11:13:00,rvs,19.62
2023-07-31T11:14:00,rvs,31.62
2023-07-31T11:15:00,rvs,28.39
2023-07-31T11:16:00,rvs,24.61
2023-07-31T11:17:00,rvs,24.73
2023-07-31T11:18:00,rvs,28.59
2023-07-31T11:19:00,rvs,23.78
2023-07-31T11:20:00,rvs,20.29
2023-07-31T11:21:00,rvs,24.36
2023-07-31T11:22:00,rvs,17.20
2023-07-31T11:23:00,rvs,27.63
2023-07-31T11:24:00,rvs,20.52
2023-07-31T11:25:00,rvs,20.46
2023-07-31T11:26:00,rvs,17.93
2023-07-31T11:27:00,rvs,25.67
2023-07-31T11:28:00,rvs,21.87
2023-07-31T11:29:00,rvs,20.58
2023-07-31T11:30:00,rvs,24.46
2023-07-31T11:31:00,rvs,18.75
2023-07-31T11:32:00,rvs,27.94
2023-07-31T11:33:00,rvs,20.31
2023-07-31T11:34:00,rvs,20.70
2023-07-31T11:35:00,rvs,21.05
2023-07-31T11:36:00,rvs,22.06
2023-07-31T11:37:00,rvs,23.01
2023-07-31T11:38:00,rvs,25.09
2023-07-31T11:39:00,rvs,24.36
2023-07-31T11:40:00,rvs,24.47
2023-07-31T11:41:00,rvs,23.60
2023-07-31T11:42:00,rvs,18.85
2023-07-31T11:43:00,rvs,17.84
2023-07-31T11:44:00,rvs,17.87
2023-07-31T11:45:00,rvs,22.40
2023-07-31T11:46:00,rvs,19.90
2023-07-31T11:47:00,rvs,21.07
2023-07-31T11:48:00,rvs,21.78
2023-07-31T11:49:00,rvs,25.37
2023-07-31T11:50:00,rvs,21.18
2023-07-31T11:51:00,rvs,21.85
2023-07-31T11:52:00,rvs,23.21
2023-07-31T11:53:00,rvs,24.03
2023-07-31T11:54:00,rvs,22.72
2023-07-31T11:55:00,rvs,22.87
2023-07-31T11:56:00,rvs,24.04
2023-07-31T11:57:00,rvs,24.67
2023-07-31T11:58:00,rvs,16.10
2023-07-31T11:59:00,rvs,12.37
2023-07-31T12:00:00,rvs,12.25
2023-07-31T12:01:00,rvs,11.21
2023-07-31T12:02:00,rvs,11.16
2023-07-31T12:03:00,rvs,13.50
2023-07-31T12:04:00,rvs,13.96
2023-07-31T12:05:00,rvs,15.80
2023-07-31T12:06:00,rvs,16.68
2023-07-31T12:07:00,rvs,17.15
2023-07-31T12:08:00,rvs,16.68
2023-07-31T12:09:00,rvs,17.34
2023-07-31T12:10:00,rvs,34.65
2023-07-31T12:11:00,rvs,31.17
2023-07-31T12:12:00,rvs,30.13
2023-07-31T12:13:00,rvs,29.61
2023-07-31T12:14:00,rvs,29.97
2023-07-31T12:15:00,rvs,29.30
2023-07-31T12:16:00,rvs,15.69
2023-07-31T12:17:00,rvs,10.72
2023-07-31T12:18:00,rvs,13.37
2023-07-31T12:19:00,rvs,14.85
2023-07-31T12:20:00,rvs,15.35
2023-07-31T12:21:00,rvs,16.43
2023-07-31T12:22:00,rvs,15.02
2023-07-31T12:23:00,rvs,15.26
2023-07-31T12:24:00,rvs,15.62
2023-07-31T12:25:00,rvs,15.09
2023-07-31T12:26:00,rvs,22.05
2023-07-31T12:27:00,rvs,15.04
2023-07-31T12:28:00,rvs,15.54
2023-07-31T12:29:00,rvs,15.69
2023-07-31T12:30:00,rvs,15.42
2023-07-31T12:31:00,rvs,15.67
2023-07-31T12:32:00,rvs,11.63
2023-07-31T12:33:00,rvs,11.62
2023-07-31T12:34:00,rvs,11.07
2023-07-31T12:35:00,rvs,11.01
2023-07-31T12:36:00,rvs,11.53
2023-07-31T12:37:00,rvs,11.43
2023-07-31T12:38:00,rvs,10.48
2023-07-31T12:39:00,rvs,11.51
2023-07-31T12:40:00,rvs,12.00
2023-07-31T12:41:00,rvs,12.50
2023-07-31T12:42:00,rvs,11.21
2023-07-31T12:43:00,rvs,11.13
2023-07-31T12:44:00,rvs,12.01
2023-07-31T12:45:00,rvs,11.05
2023-07-31T12:46:00,rvs,10.44
2023-07-31T12:47:00,rvs,10.81
2023-07-31T12:48:00,rvs,15.08
2023-07-31T12:49:00,rvs,15.11
2023-07-31T12:50:00,rvs,14.90
2023-07-31T12:51:00,rvs,14.22
2023-07-31T12:52:00,rvs,15.01
2023-07-31T12:53:00,rvs,19.63
2023-07-31T12:54:00,rvs,18.33
2023-07-31T12:55:00,rvs,18.46
2023-07-31T12:56:00,rvs,18.45
2023-07-31T12:57:00,rvs,15.35
2023-07-31T12:58:00,rvs,16.12
2023-07-31T12:59:00,rvs,12.19
2023-07-31T13:00:00,rvs,11.14
2023-07-31T13:01:00,rvs,17.85
2023-07-31T13:02:00,rvs,14.34
2023-07-31T13:03:00,rvs,14.30
2023-07-31T13:04:00,rvs,18.74
2023-07-31T13:05:00,rvs,15.94
2023-07-31T13:06:00,rvs,19.67
2023-07-31T13:07:00,rvs,16.41
2023-07-31T13:08:00,rvs,15.35
2023-07-31T13:09:00,rvs,19.01
2023-07-31T13:10:00,rvs,15.64
2023-07-31T13:11:00,rvs,15.48
2023-07-31T13:12:00,rvs,16.81
2023-07-31T13:13:00,rvs,12.25
2023-07-31T13:14:00,rvs,16.32
2023-07-31T13:15:00,rvs,11.30
2023-07-31T13:16:00,rvs,15.32
2023-07-31T13:17:00,rvs,11.40
2023-07-31T13:18:00,rvs,12.34